TimeEDT,TemperatureF,Dew PointF,Humidity,Sea Level PressureIn,VisibilityMPH,Wind Direction,Wind SpeedMPH,Gust SpeedMPH,PrecipitationIn,Events,Conditions,WindDirDegrees,DateUTC
12:15 AM,42.8,37.4,81,29.65,8.0,NW,10.4,-,N/A,,Overcast,310,2013-05-26 04:15:00
12:35 AM,42.8,39.2,87,29.65,10.0,WNW,9.2,-,N/A,,Overcast,300,2013-05-26 04:35:00
12:55 AM,42.8,37.4,81,29.64,10.0,NW,8.1,-,N/A,,Overcast,320,2013-05-26 04:55:00
1:15 AM,42.8,37.4,81,29.64,8.0,NW,9.2,-,0.01,,Overcast,320,2013-05-26 05:15:00
1:35 AM,42.8,37.4,81,29.63,5.0,NW,10.4,19.6,0.02,,Overcast,310,2013-05-26 05:35:00
1:55 AM,42.8,37.4,81,29.63,3.0,NW,9.2,18.4,0.02,,Overcast,310,2013-05-26 05:55:00
2:15 AM,42.8,37.4,81,29.63,4.0,NW,10.4,18.4,N/A,,Overcast,320,2013-05-26 06:15:00
2:35 AM,42.8,39.2,87,29.62,3.0,NW,10.4,16.1,N/A,,Overcast,320,2013-05-26 06:35:00
2:55 AM,42.8,39.2,87,29.62,3.0,NW,10.4,16.1,0.01,,Overcast,310,2013-05-26 06:55:00
3:15 AM,42.8,37.4,81,29.62,4.0,NW,9.2,16.1,N/A,,Overcast,320,2013-05-26 07:15:00
3:35 AM,42.8,37.4,81,29.62,3.0,NW,9.2,-,N/A,,Overcast,310,2013-05-26 07:35:00
3:55 AM,42.8,37.4,81,29.62,4.0,WNW,9.2,16.1,N/A,,Overcast,300,2013-05-26 07:55:00
4:15 AM,42.8,39.2,87,29.63,4.0,NW,8.1,-,N/A,,Overcast,310,2013-05-26 08:15:00
4:35 AM,42.8,37.4,81,29.63,3.0,WNW,9.2,-,N/A,,Overcast,300,2013-05-26 08:35:00
4:55 AM,42.8,37.4,81,29.65,3.0,NW,10.4,16.1,N/A,,Overcast,320,2013-05-26 08:55:00
5:15 AM,42.8,39.2,87,29.65,4.0,NW,8.1,17.3,N/A,,Overcast,310,2013-05-26 09:15:00
5:35 AM,42.8,39.2,87,29.66,8.0,NW,8.1,16.1,N/A,,Overcast,310,2013-05-26 09:35:00
5:55 AM,42.8,37.4,81,29.66,10.0,NW,8.1,-,N/A,,Overcast,310,2013-05-26 09:55:00
6:15 AM,42.8,37.4,81,29.67,10.0,WNW,8.1,-,N/A,,Overcast,300,2013-05-26 10:15:00
6:35 AM,42.8,37.4,81,29.68,10.0,WNW,8.1,-,N/A,,Overcast,300,2013-05-26 10:35:00
6:55 AM,42.8,37.4,81,29.68,10.0,WNW,9.2,-,N/A,,Overcast,300,2013-05-26 10:55:00
7:15 AM,44.6,37.4,76,29.69,10.0,WNW,11.5,16.1,N/A,,Overcast,300,2013-05-26 11:15:00
7:35 AM,44.6,37.4,76,29.70,10.0,WNW,8.1,19.6,N/A,,Overcast,300,2013-05-26 11:35:00
7:55 AM,46.4,39.2,76,29.71,10.0,NW,8.1,-,N/A,,Overcast,310,2013-05-26 11:55:00
8:15 AM,46.4,37.4,71,29.71,10.0,WNW,11.5,23.0,N/A,,Overcast,300,2013-05-26 12:15:00
8:35 AM,46.4,37.4,71,29.72,10.0,WNW,8.1,-,N/A,,Overcast,300,2013-05-26 12:35:00
8:55 AM,46.4,37.4,71,29.73,10.0,WNW,11.5,17.3,N/A,,Overcast,300,2013-05-26 12:55:00
9:15 AM,46.4,37.4,71,29.73,10.0,WNW,12.7,-,N/A,,Overcast,290,2013-05-26 13:15:00
9:35 AM,48.2,35.6,62,29.74,10.0,WNW,11.5,17.3,N/A,,Overcast,300,2013-05-26 13:35:00
9:55 AM,48.2,37.4,66,29.75,10.0,WNW,11.5,17.3,N/A,,Overcast,290,2013-05-26 13:55:00
10:15 AM,48.2,37.4,66,29.75,10.0,NW,8.1,-,N/A,,Overcast,310,2013-05-26 14:15:00
10:35 AM,50.0,37.4,62,29.75,10.0,WNW,12.7,18.4,N/A,,Overcast,290,2013-05-26 14:35:00
10:55 AM,51.8,39.2,62,29.75,10.0,WNW,11.5,17.3,N/A,,Mostly Cloudy,300,2013-05-26 14:55:00
11:15 AM,53.6,39.2,58,29.76,10.0,West,13.8,19.6,N/A,,Mostly Cloudy,260,2013-05-26 15:15:00
11:35 AM,53.6,37.4,54,29.76,10.0,WNW,10.4,18.4,N/A,,Overcast,290,2013-05-26 15:35:00
11:55 AM,55.4,37.4,51,29.76,10.0,WNW,12.7,-,N/A,,Overcast,300,2013-05-26 15:55:00
12:15 PM,55.4,37.4,51,29.77,10.0,NW,11.5,17.3,N/A,,Mostly Cloudy,310,2013-05-26 16:15:00
12:35 PM,55.4,37.4,51,29.77,10.0,WNW,13.8,20.7,N/A,,Mostly Cloudy,300,2013-05-26 16:35:00
12:55 PM,57.2,37.4,48,29.78,10.0,NW,17.3,23.0,N/A,,Mostly Cloudy,310,2013-05-26 16:55:00
1:15 PM,55.4,35.6,47,29.79,10.0,West,9.2,19.6,N/A,,Mostly Cloudy,280,2013-05-26 17:15:00
1:35 PM,55.4,35.6,47,29.79,10.0,West,17.3,24.2,N/A,,Overcast,280,2013-05-26 17:35:00
1:55 PM,55.4,37.4,51,29.80,10.0,WNW,11.5,24.2,N/A,,Overcast,300,2013-05-26 17:55:00
2:15 PM,55.4,35.6,47,29.81,10.0,NW,13.8,21.9,N/A,,Overcast,310,2013-05-26 18:15:00
2:35 PM,55.4,35.6,47,29.81,10.0,West,15.0,23.0,N/A,,Overcast,280,2013-05-26 18:35:00
3:15 PM,57.2,35.6,44,29.82,10.0,West,17.3,26.5,N/A,,Mostly Cloudy,260,2013-05-26 19:15:00
3:35 PM,55.4,35.6,47,29.83,10.0,WNW,12.7,20.7,N/A,,Mostly Cloudy,290,2013-05-26 19:35:00
3:55 PM,57.2,35.6,44,29.84,10.0,WNW,12.7,23.0,N/A,,Overcast,300,2013-05-26 19:55:00
4:16 PM,55.4,35.6,47,29.85,10.0,West,13.8,24.2,N/A,,Overcast,280,2013-05-26 20:16:00
4:35 PM,55.4,35.6,47,29.86,10.0,West,16.1,25.3,N/A,,Overcast,270,2013-05-26 20:35:00
4:55 PM,55.4,35.6,47,29.87,10.0,West,12.7,20.7,N/A,,Overcast,280,2013-05-26 20:55:00
5:15 PM,57.2,35.6,44,29.87,10.0,WNW,15.0,21.9,N/A,,Overcast,290,2013-05-26 21:15:00
5:35 PM,55.4,35.6,47,29.88,10.0,WNW,11.5,18.4,N/A,,Overcast,290,2013-05-26 21:35:00
5:55 PM,55.4,35.6,47,29.89,10.0,WNW,17.3,25.3,N/A,,Overcast,300,2013-05-26 21:55:00
6:15 PM,53.6,35.6,51,29.90,10.0,West,16.1,24.2,N/A,,Mostly Cloudy,280,2013-05-26 22:15:00
6:35 PM,55.4,35.6,47,29.92,10.0,WNW,15.0,23.0,N/A,,Overcast,290,2013-05-26 22:35:00
6:55 PM,53.6,35.6,51,29.93,10.0,West,17.3,23.0,N/A,,Overcast,280,2013-05-26 22:55:00
7:15 PM,53.6,35.6,51,29.93,10.0,WNW,10.4,20.7,N/A,,Mostly Cloudy,290,2013-05-26 23:15:00
7:35 PM,51.8,35.6,54,29.94,10.0,WNW,11.5,20.7,N/A,,Partly Cloudy,290,2013-05-26 23:35:00
7:55 PM,51.8,35.6,54,29.96,10.0,West,10.4,18.4,N/A,,Clear,280,2013-05-26 23:55:00
8:15 PM,50.0,35.6,58,29.96,10.0,West,11.5,19.6,N/A,,Clear,280,2013-05-27 00:15:00
8:35 PM,48.2,35.6,62,29.97,10.0,WNW,11.5,16.1,N/A,,Clear,290,2013-05-27 00:35:00
8:55 PM,48.2,35.6,62,29.98,10.0,WNW,8.1,-,N/A,,Clear,290,2013-05-27 00:55:00
9:15 PM,48.2,35.6,62,29.99,10.0,WNW,9.2,-,N/A,,Clear,300,2013-05-27 01:15:00
9:35 PM,48.2,35.6,62,30.00,10.0,WNW,9.2,-,N/A,,Clear,290,2013-05-27 01:35:00
9:55 PM,46.4,35.6,66,30.01,10.0,WNW,6.9,-,N/A,,Clear,290,2013-05-27 01:55:00
10:15 PM,46.4,35.6,66,30.00,10.0,WSW,6.9,-,N/A,,Clear,250,2013-05-27 02:15:00
10:35 PM,44.6,35.6,71,30.01,10.0,WSW,5.8,-,N/A,,Clear,240,2013-05-27 02:35:00
10:55 PM,42.8,35.6,76,30.01,10.0,WSW,5.8,-,N/A,,Mostly Cloudy,250,2013-05-27 02:55:00
11:15 PM,44.6,33.8,66,30.02,10.0,West,6.9,-,N/A,,Overcast,260,2013-05-27 03:15:00
11:35 PM,42.8,35.6,76,30.02,10.0,West,4.6,-,N/A,,Mostly Cloudy,260,2013-05-27 03:35:00
11:55 PM,39.2,35.6,87,30.03,10.0,SW,6.9,-,N/A,,Partly Cloudy,230,2013-05-27 03:55:00